Time,TemperatureF,DewpointF,PressureIn,WindDirection,WindDirectionDegrees,WindSpeedMPH,WindSpeedGustMPH,Humidity,HourlyPrecipIn,Conditions,Clouds,dailyrainin,SoftwareType,DateUTC
2013-04-24 00:02:00,32.0,19.0,-100.00,West,280,2.0,2.0,57,-99.99,,,-99.99,,2013-04-24 06:02:00,
2013-04-24 00:12:00,32.0,19.0,-100.00,West,280,2.0,2.0,57,-99.99,,,-99.99,,2013-04-24 06:12:00,
2013-04-24 00:21:00,31.0,19.0,-100.00,NW,320,2.0,2.0,58,-99.99,,,-99.99,,2013-04-24 06:21:00,
2013-04-24 00:32:00,32.0,20.0,-100.00,WNW,295,4.0,4.0,60,-99.99,,,-99.99,,2013-04-24 06:32:00,
2013-04-24 00:42:00,32.0,20.0,-100.00,WNW,295,4.0,4.0,60,-99.99,,,-99.99,,2013-04-24 06:42:00,
2013-04-24 00:52:00,33.0,21.0,-100.00,WNW,290,3.0,4.0,59,-99.99,,,-99.99,,2013-04-24 06:52:00,
2013-04-24 01:02:00,32.0,20.0,-100.00,WNW,285,3.0,4.0,60,-99.99,,,-99.99,,2013-04-24 07:02:00,
2013-04-24 01:11:00,32.0,20.0,-100.00,WNW,285,3.0,4.0,60,-99.99,,,-99.99,,2013-04-24 07:11:00,
2013-04-24 01:22:00,32.0,20.0,-100.00,NNW,345,4.0,6.0,62,-99.99,,,-99.99,,2013-04-24 07:22:00,
2013-04-24 01:32:00,33.0,22.0,-100.00,NW,310,5.0,6.0,64,-99.99,,,-99.99,,2013-04-24 07:32:00,
2013-04-24 01:42:00,33.0,22.0,-100.00,NW,310,5.0,6.0,64,-99.99,,,-99.99,,2013-04-24 07:42:00,
2013-04-24 01:52:00,32.0,21.0,-100.00,WNW,285,7.0,8.0,64,-99.99,,,-99.99,,2013-04-24 07:52:00,
2013-04-24 02:02:00,32.0,22.0,-100.00,WNW,285,7.0,7.0,65,-99.99,,,-99.99,,2013-04-24 08:02:00,
2013-04-24 02:10:00,32.0,23.0,-100.00,WNW,285,8.0,9.0,68,-99.99,,,-99.99,,2013-04-24 08:10:00,
2013-04-24 02:12:00,32.0,22.0,-100.00,WNW,285,7.0,7.0,65,-99.99,,,-99.99,,2013-04-24 08:12:00,
2013-04-24 02:21:00,31.0,22.0,-100.00,West,280,9.0,9.0,66,-99.99,,,-99.99,,2013-04-24 08:21:00,
2013-04-24 02:33:00,32.0,22.0,-100.00,WNW,285,7.0,10.0,68,-99.99,,,-99.99,,2013-04-24 08:33:00,
2013-04-24 02:42:00,32.0,22.0,-100.00,WNW,285,7.0,10.0,68,-99.99,,,-99.99,,2013-04-24 08:42:00,
2013-04-24 02:52:00,32.0,23.0,-100.00,WNW,285,8.0,9.0,68,-99.99,,,-99.99,,2013-04-24 08:52:00,
2013-04-24 03:02:00,32.0,23.0,-100.00,WNW,285,8.0,9.0,68,-99.99,,,-99.99,,2013-04-24 09:02:00,
2013-04-24 23:20:00,26.0,16.0,-100.00,South,180,9.0,11.0,63,-99.99,,,-99.99,,2013-04-25 05:20:00,